OE7AOT Weather Reports


time (UTC)temp
C
wind
direction
speed
KPH
gust
KPH
rain 1hr
cm
rain 24hr
cm
rain mn
cm
humidity
%
barometer
mb
20260906064223 13 0 0.0 0.0 0.00 0.25 0.00 80 923.8
20260906061223 13 0 0.0 0.0 0.00 0.25 0.00 80 923.6
20260906054223 13 0 0.0 0.0 0.00 0.25 0.00 79 923.5
20260906051223 13 0 0.0 0.0 0.00 0.25 0.00 79 923.4
20260906044222 13 0 0.0 0.0 0.00 0.25 0.00 79 923.2
20260906041223 14 0 0.0 0.0 0.00 0.25 0.00 79 923.3
20260906034223 15 0 0.0 0.0 0.00 0.25 0.00 80 923.1
20260906031223 15 0 0.0 0.0 0.00 0.25 0.00 79 923.0
20260906024223 15 0 0.0 0.0 0.00 0.25 0.00 78 923.1
20260906021223 15 0 0.0 0.0 0.00 0.25 0.00 79 923.1
20260906014223 15 0 0.0 0.0 0.00 0.25 0.00 78 923.2
20260906011223 15 0 0.0 0.0 0.00 0.25 0.00 78 923.1
20260906004223 15 0 0.0 0.0 0.00 0.25 0.00 78 923.1
20260906001223 15 0 0.0 0.0 0.00 0.25 0.00 79 923.1
20260905234222 15 0 0.0 0.0 0.00 0.25 0.00 79 923.1
20260905231223 15 0 0.0 0.0 0.00 0.25 0.00 78 923.1
20260905224222 15 0 0.0 0.0 0.00 0.25 0.00 79 923.0
20260905221223 15 0 0.0 0.0 0.00 0.25 0.00 79 923.1
20260905214222 15 0 0.0 0.0 0.00 0.25 0.25 79 922.8
20260905211222 15 0 0.0 0.0 0.00 0.25 0.25 79 922.6
20260905204223 15 0 0.0 0.0 0.00 0.25 0.25 79 922.6
20260905201222 15 0 0.0 0.0 0.00 0.25 0.25 78 922.6
20260905194223 16 0 0.0 0.0 0.00 0.25 0.25 78 922.4
20260905191222 16 0 0.0 0.0 0.00 0.25 0.25 77 922.3
20260905184223 16 0 0.0 0.0 0.00 0.25 0.25 76 921.7
20260905181222 16 0 0.0 0.0 0.00 0.25 0.25 74 921.5
20260905174222 17 0 0.0 0.0 0.00 0.25 0.25 73 921.4
20260905171223 17 0 0.0 0.0 0.00 0.25 0.25 70 921.4
20260905164223 18 0 0.0 0.0 0.00 0.25 0.25 67 921.3
20260905161223 20 0 0.0 0.0 0.00 0.25 0.25 61 921.2
20260905154222 18 302 0.0 4.8 0.03 0.25 0.25 67 921.2
20260905151222 16 309 0.0 4.8 0.08 0.25 0.25 74 921.5
20260905145622 16 247 0.0 3.2 0.03 0.20 0.20 72 921.4
20260905144022 17 300 1.6 9.7 0.00 0.18 0.18 70 921.4
20260905142422 17 288 6.4 11.3 0.00 0.18 0.18 69 921.1
20260905140823 18 278 14.5 29.0 0.00 0.18 0.18 63 920.8
20260905140022 18 278 14.5 29.0 0.00 0.18 0.18 63 920.8
20260905135223 19 280 14.5 25.7 0.00 0.18 0.18 60 920.4
20260905134422 20 280 12.9 24.1 0.00 0.18 0.18 60 920.2
20260905133622 20 280 12.9 24.1 0.00 0.18 0.18 60 920.2
20260905133223 20 282 12.9 20.9 0.00 0.18 0.18 58 920.0
20260905132823 20 282 12.9 20.9 0.00 0.18 0.18 58 920.0
20260905132422 20 282 12.9 20.9 0.00 0.18 0.18 58 920.0
20260905132022 21 279 14.5 24.1 0.00 0.18 0.18 56 919.8
20260905131823 21 279 14.5 24.1 0.00 0.18 0.18 56 919.8
20260905131623 21 279 14.5 24.1 0.00 0.18 0.18 56 919.8
20260905131422 21 279 14.5 24.1 0.00 0.18 0.18 56 919.8
20260905131223 21 279 14.5 24.1 0.00 0.18 0.18 56 919.8
20260905131123 21 279 14.5 24.1 0.00 0.18 0.18 56 919.8
20260905131023 21 279 14.5 24.1 0.00 0.18 0.18 56 919.8
20260905130923 21 279 14.5 24.1 0.00 0.18 0.18 56 919.8
20260905080501 15 339 0.0 3.2 0.15 0.15 0.15 73 920.0
20260905080101 15 339 0.0 3.2 0.15 0.15 0.15 73 920.0
20260905075701 15 339 0.0 3.2 0.15 0.15 0.15 73 920.0
20260905075305 15 278 0.0 3.2 0.15 0.15 0.15 72 919.9
20260905074901 16 303 0.0 4.8 0.15 0.15 0.15 72 919.9
20260905074701 16 303 0.0 4.8 0.15 0.15 0.15 72 919.9
20260905074501 16 0 0.0 0.0 0.15 0.15 0.15 72 919.9
20260905074301 16 0 0.0 0.0 0.15 0.15 0.15 72 919.9
20260905074101 16 0 0.0 0.0 0.15 0.15 0.15 72 919.9
20260905074001 16 217 0.0 3.2 0.03 0.03 0.03 71 919.8
20260905073901 16 217 0.0 3.2 0.03 0.03 0.03 71 919.8
20260905073801 16 217 0.0 3.2 0.03 0.03 0.03 71 919.8